| time (UTC) | temp F | wind direction | speed knots | gust knots | rain 1hr in | rain 24hr in | rain mn in | humidity % | barometer mb |
| 20260503022000 | 89 | 0 | 6.1 | 40.8 | 0.00 | 0.00 | 0.00 | 95 | |
| 20260503020959 | 87 | 0 | 26.9 | 33.9 | 0.00 | 0.00 | 0.00 | 95 | |
| 20260503015958 | 87 | 0 | 0.0 | 33.9 | 0.00 | 0.00 | 0.00 | 95 | |
| 20260503014957 | 86 | 0 | 20.0 | 26.9 | 0.00 | 0.00 | 0.00 | 95 | |
| 20260503012955 | 86 | 135 | 13.0 | 26.9 | 0.00 | 0.00 | 0.00 | 95 | |
| 20260503011954 | 86 | 135 | 0.0 | 20.0 | 0.00 | 0.00 | 0.00 | 95 | |
| 20260503010953 | 82 | 180 | 0.0 | 20.0 | 0.00 | 0.00 | 0.00 | 95 | |
| 20260503004952 | 82 | 0 | 13.0 | 26.9 | 0.00 | 0.00 | 0.00 | 95 | |
| 20260503002949 | 82 | 0 | 13.0 | 20.0 | 0.00 | 0.00 | 0.00 | 95 | |
| 20260503001948 | 80 | 0 | 0.0 | 33.9 | 0.00 | 0.00 | 0.00 | 95 | |
| 20260502235947 | 80 | 0 | 13.0 | 20.0 | 0.00 | 0.00 | 0.00 | 95 | |
| 20260502234946 | 80 | 315 | 0.0 | 13.0 | 0.00 | 0.00 | 0.00 | 95 | |
| 20260502233945 | 80 | 315 | 6.1 | 13.0 | 0.00 | 0.00 | 0.00 | 95 | |
| 20260502232944 | 80 | 180 | 0.0 | 0.0 | 0.00 | 0.00 | 0.00 | 95 | |
| 20260502230942 | 80 | 180 | 0.0 | 0.0 | 0.00 | 0.00 | 0.00 | 95 | |
| 20260502224941 | 80 | 270 | 6.1 | 13.0 | 0.00 | 0.00 | 0.00 | 95 | |
| 20260502223940 | 80 | 270 | 0.0 | 6.1 | 0.00 | 0.00 | 0.00 | 95 | |
| 20260502222940 | 80 | 270 | 0.0 | 0.0 | 0.00 | 0.00 | 0.00 | 95 | |
| 20260502221938 | 80 | 270 | 0.0 | 0.0 | 0.00 | 0.00 | 0.00 | 95 | |
| 20260502215936 | 80 | 315 | 0.0 | 0.0 | 0.00 | 0.00 | 0.00 | 95 | |
| 20260502213934 | 82 | 315 | 0.0 | 0.0 | 0.00 | 0.00 | 0.00 | 95 | |
| 20260502211932 | 80 | 315 | 0.0 | 0.0 | 0.00 | 0.00 | 0.00 | 95 | |
| 20260502185920 | 82 | 315 | 0.0 | 6.1 | 0.00 | 0.00 | 0.00 | 95 | |
| 20260502184920 | 80 | 315 | 0.0 | 13.0 | 0.00 | 0.00 | 0.00 | 95 | |
| 20260502183918 | 80 | 315 | 0.0 | 13.0 | 0.00 | 0.00 | 0.00 | 95 | |
| 20260502181917 | 82 | 0 | 0.0 | 13.0 | 0.00 | 0.00 | 0.00 | 95 | |
| 20260502180916 | 80 | 0 | 0.0 | 13.0 | 0.00 | 0.00 | 0.00 | 95 | |
| 20260502163909 | 80 | 0 | 0.0 | 13.0 | 0.00 | 0.00 | 0.00 | 95 | |
| 20260502162908 | 82 | 0 | 6.1 | 26.9 | 0.00 | 0.00 | 0.00 | 95 | |
| 20260502161908 | 82 | 90 | 0.0 | 13.0 | 0.00 | 0.00 | 0.00 | 95 | |
| 20260502160908 | 82 | 90 | 6.1 | 20.0 | 0.00 | 0.00 | 0.00 | 95 | |
| 20260502151903 | 82 | 180 | 0.0 | 13.0 | 0.00 | 0.00 | 0.09 | 95 | |
| 20260502150902 | 84 | 180 | 6.1 | 13.0 | 0.00 | 0.00 | 0.09 | 95 | |
| 20260502122847 | 84 | 315 | 13.0 | 26.9 | 0.00 | 0.00 | 0.09 | 95 | |
| 20260502120847 | 86 | 315 | 0.0 | 26.9 | 0.00 | 0.00 | 0.09 | 95 | |
| 20260502115845 | 86 | 315 | 6.1 | 20.0 | 0.00 | 0.00 | 0.09 | 95 | |
| 20260502114845 | 86 | 315 | 6.1 | 13.0 | 0.00 | 0.00 | 0.09 | 95 | |
| 20260502112843 | 86 | 0 | 0.0 | 13.0 | 0.00 | 0.00 | 0.09 | 95 | |
| 20260502110841 | 86 | 0 | 0.0 | 13.0 | 0.00 | 0.00 | 0.09 | 95 | |
| 20260502104839 | 86 | 0 | 6.1 | 26.9 | 0.00 | 0.00 | 0.09 | 95 | |
| 20260502102836 | 86 | 315 | 0.0 | 26.9 | 0.00 | 0.00 | 0.09 | 95 | |
| 20260502101836 | 87 | 315 | 13.0 | 40.8 | 0.00 | 0.00 | 0.09 | 95 | |
| 20260502070821 | 89 | 180 | 54.7 | 123.4 | 0.00 | 0.00 | 0.09 | 33 | |
| 20260502064820 | 93 | 180 | 13.0 | 95.6 | 0.00 | 0.00 | 0.09 | 10 | |
| 20260502062818 | 95 | 315 | 13.0 | 68.6 | 0.00 | 0.00 | 0.09 | 40 | |
| 20260502060816 | 93 | 180 | 20.0 | 54.7 | 0.00 | 0.00 | 0.09 | 10 | |
| 20260502054815 | 91 | 180 | 47.8 | 68.6 | 0.00 | 0.00 | 0.09 | 32 | |
| 20260502053813 | 91 | 180 | 54.7 | 75.6 | 0.00 | 0.00 | 0.09 | 36 | |
| 20260502051812 | 95 | 180 | 26.9 | 61.7 | 0.00 | 0.00 | 0.09 | 10 | |
| 20260502045811 | 93 | 180 | 6.1 | 75.6 | 0.00 | 0.00 | 0.09 | 10 | |
| 20260502043810 | 93 | 135 | 20.0 | 54.7 | 0.00 | 0.00 | 0.09 | 10 | |
| 20260502041808 | 89 | 0 | 0.0 | 61.7 | 0.00 | 0.00 | 0.09 | 18 | |
| 20260502035806 | 91 | 0 | 6.1 | 68.6 | 0.00 | 0.00 | 0.09 | 30 | |
| 20260502033804 | 89 | 0 | 13.0 | 54.7 | 0.00 | 0.00 | 0.09 | 84 | |
| 20260502031803 | 87 | 180 | 26.9 | 47.8 | 0.00 | 0.00 | 0.09 | 82 | |
| 20260502030802 | 87 | 180 | 6.1 | 33.9 | 0.00 | 0.00 | 0.09 | 95 | |
| 20260502024801 | 87 | 180 | 13.0 | 54.7 | 0.00 | 0.00 | 0.09 | 95 | |
| 20260502023800 | 86 | 180 | 13.0 | 40.8 | 0.00 | 0.00 | 0.09 | 95 |